Tracking 28792 objects as of 23-Apr-2024
HD Live streaming from Space Station
objects crossing your sky now

SL-14 R/B

Track SL-14 R/B now!
10-day predictions


NORAD ID: 15475
Int'l Code: 1985-003G
Perigee: 1,420.6 km
Apogee: 1,479.6 km
Inclination: 82.6 °
Period: 114.7 minutes
Semi major axis: 7821 km
RCS: 6.3339 m2 (large)
Launch date: January 15, 1985
Source: Commonwealth of Independent States (former USSR) (CIS)
Launch site: PLESETSK MISSILE AND SPACE COMPLEX (PKMTR)

Note: This is a ROCKET BODY
Your satellite tracking list
Your tracking list is empty




NASA's NSSDC Master Catalog

Two Line Element Set (TLE):
1 15475U 85003G   24113.25128112  .00000031  00000-0  12667-3 0  9990
2 15475  82.6165  13.9038 0037704 158.0653 320.2626 12.55169438798914
Source of the keplerian elements: AFSPC